STARLINK-4372 (53233 NORAD) Tracking and Keplerian Element Data

This shows tracking and keplerian element data for the satellite.

Feedback or suggestion? Click here.




ElementValue
Catalog53233
NameSTARLINK-4372
Epoch Orbit1034
Epoch Day270.11400477
Epoch Year2022
RAAN329.9615
Inclination97.6513
Eccentricity0.0001968
Argument of Perigee90.4085
Mean Anonmoly269.7364
Mean Motion15.0046192
Decay Rate3.009E-05
L11 53233U 22084AW 22270.11400477 .00003009 00000+0 24373-3 0 9992
L22 53233 97.6513 329.9615 0001968 90.4085 269.7364 15.00461920 10347

Live tracking and technical data element details for STARLINK-4372 (NORAD 53233). STARLINK-4372 can be tracked NOW for your location showing map with azimuth and elevation plus other details from your city location.

Track the satellite on the map from your city or location and see movement details for azimuth, elevation, latitude, longitude, range, height, and movement on the map or in text.







IsCatalogInMostPopularTable: catalog: 53233, numindb: 6
Update: records affected: 1



GetName: 53233 STARLINK-4372

Hit Count: updated at: Thu, 29 Sep 2022 12:31:49 GMT